Theta_e
312 311 311 313 312 312 313 315 320 321 324 327 329 334 343 340 340 344 341 342 343 338
311 310 310 311 312 311 313 313 315 317 319 321 324 328 335 334 339 341 340 340 341 338
309 309 309 310 310 310 311 312 312 313 314 316 319 323 328 331 336 337 335 333 338 339
307 307 308 307 307 307 308 309 309 310 311 313 314 317 321 325 328 329 332 335 335 336
306 306 305 305 306 306 306 307 307 309 309 310 311 314 315 317 322 325 326 329 332 331
304 304 304 304 305 305 305 305 305 306 306 306 307 308 313 315 318 323 326 326 328 331
303 304 304 304 303 303 303 302 303 303 303 305 306 307 310 312 315 318 322 325 327 328
304 304 303 302 302 303 304 303 303 302 303 303 304 305 306 308 310 315 318 321 322 325
301 301 303 303 303 304 303 303 302 301 301 301 303 301 302 304 305 308 310 312 318 321
303 301 302 303 302 301 302 301 300 300 300 300 300 300 300 302 305 305 307 307 312 316
301 302 301 299 300 301 300 300 300 300 300 299 300 299 298 300 303 306 308 307 310 318
300 298 297 297 299 302 300 303 300 300 300 299 299 298 298 300 304 305 309 310 315 318
299 297 297 298 299 303 303 301 301 300 300 300 301 299 297 299 303 305 309 313 315 308
299 299 299 299 301 300 302 301 301 299 300 301 303 305 298 297 302 305 311 312 317 321
Wind_Speed
9 7 7 8 9 9 9 10 12 11 10 11 13 14 14 12 13 12 13 16 14 12
10 11 11 12 11 10 12 11 14 14 14 12 12 14 15 13 14 14 14 13 14 13
11 11 12 12 13 13 13 15 15 16 16 16 15 14 15 14 15 15 13 13 14 14
11 12 12 12 14 14 15 15 16 17 17 17 17 16 15 16 18 18 16 16 16 17
12 13 13 13 14 14 15 15 16 16 17 17 17 17 18 18 17 19 19 18 18 18
13 13 14 15 15 16 16 16 16 16 17 18 18 19 19 19 18 18 19 18 18 17
15 15 15 16 17 16 16 17 18 18 17 17 18 19 18 19 19 18 19 18 18 18
14 15 16 15 16 16 17 15 16 16 16 17 18 14 15 16 20 18 19 18 18 18
15 15 16 16 17 18 19 18 18 16 17 18 14 19 18 20 20 19 18 15 17 17
15 16 17 17 18 18 18 17 17 15 15 16 16 21 19 18 17 18 17 17 18 16
16 17 17 16 17 17 15 16 15 13 14 15 14 21 17 20 18 19 19 18 18 20
16 17 16 16 17 16 14 13 10 12 14 14 15 18 19 17 16 16 20 17 21 20
17 15 16 16 16 13 13 11 9 12 13 17 16 17 16 15 11 14 12 14 17 18
17 16 16 15 13 12 13 11 11 12 13 14 15 15 14 18 12 11 11 9 12 13
Wind_Direction
349 333 319 323 318 305 300 298 307 301 291 282 273 266 254 243 234 228 228 229 229 232
331 328 319 311 303 295 292 288 289 294 291 289 283 273 265 254 242 230 227 227 225 228
317 313 309 304 298 294 292 293 291 289 284 278 273 268 261 254 246 242 234 231 227 225
309 308 304 301 300 299 297 289 286 284 279 276 271 265 260 257 252 247 241 235 231 228
311 310 304 300 298 299 297 296 290 286 286 285 282 276 266 261 255 244 239 238 234 231
310 307 303 302 301 298 296 294 294 292 288 286 283 276 269 262 260 258 245 241 238 233
311 307 302 301 300 294 291 291 289 287 289 284 278 280 274 270 261 258 254 242 238 238
306 305 299 290 288 289 286 281 279 282 284 288 281 272 266 272 271 274 265 260 249 239
298 296 299 298 298 301 297 291 284 277 277 285 286 282 267 264 265 265 273 273 268 252
306 305 302 310 306 304 298 291 281 272 273 276 280 278 257 263 271 271 264 259 269 267
308 312 314 305 298 295 295 286 281 270 269 272 276 273 262 261 266 268 258 253 250 255
319 308 302 298 297 297 301 300 283 275 273 274 275 277 266 262 276 266 264 252 242 248
308 302 297 294 294 299 301 299 290 286 278 273 276 267 263 269 275 268 263 241 237 258
309 304 295 291 290 297 300 298 296 294 287 275 272 280 265 264 271 270 271 246 242 243